Hourly Weather Fuyu

Today, 9 March, Tuesday

Time Temperature Precipitation Wind Pressure Humidity
00:00 -4°C° 0 mm 7 mps 748 mmHg 73%
01:00 -4°C° 0 mm 6 mps 748 mmHg 76%
02:00 -5°C° 0 mm 6 mps 748 mmHg 79%
03:00 -5°C° 0 mm 6 mps 748 mmHg 81%
04:00 -6°C° 0 mm 5 mps 748 mmHg 83%
05:00 -6°C° 0 mm 5 mps 748 mmHg 84%
06:00 -5°C° 0 mm 5 mps 749 mmHg 82%
07:00 -5°C° 0 mm 5 mps 750 mmHg 80%
08:00 -4°C° 0 mm 5 mps 751 mmHg 77%
09:00 -3°C° 0 mm 6 mps 751 mmHg 70%
10:00 -2°C° 0 mm 6 mps 752 mmHg 62%
11:00 -1°C° 0 mm 7 mps 753 mmHg 54%
12:00 -1°C° 0 mm 7 mps 753 mmHg 51%
13:00 -1°C° 0 mm 6 mps 754 mmHg 48%
14:00 +1°C° 0 mm 6 mps 754 mmHg 45%
15:00 0°C° 0 mm 5 mps 755 mmHg 47%
16:00 -1°C° 0 mm 4 mps 755 mmHg 49%
17:00 -1°C° 0 mm 3 mps 756 mmHg 50%
18:00 -2°C° 0 mm 2 mps 756 mmHg 52%
19:00 -3°C° 0 mm 2 mps 757 mmHg 55%
20:00 -2°C° 0 mm 1 mps 758 mmHg 57%
21:00 -3°C° 0 mm 1 mps 758 mmHg 58%
22:00 -3°C° 0 mm 1 mps 758 mmHg 59%
23:00 -3°C° 0 mm 1 mps 758 mmHg 59%

Tomorrow, 10 March, Wednesday

Time Temperature Precipitation Wind Pressure Humidity
00:00 -4°C° 0 mm 1 mps 759 mmHg 61%
01:00 -6°C° 0 mm 2 mps 759 mmHg 63%
02:00 -6°C° 0 mm 2 mps 759 mmHg 64%
03:00 -6°C° 0 mm 2 mps 758 mmHg 66%
04:00 -8°C° 0 mm 3 mps 758 mmHg 68%
05:00 -8°C° 0 mm 3 mps 758 mmHg 69%
06:00 -8°C° 0 mm 4 mps 757 mmHg 67%
07:00 -7°C° 0 mm 4 mps 757 mmHg 65%
08:00 -6°C° 0 mm 5 mps 757 mmHg 63%
09:00 -4°C° 0 mm 5 mps 756 mmHg 58%
10:00 -1°C° 0 mm 5 mps 756 mmHg 54%
11:00 -1°C° 0 mm 6 mps 755 mmHg 49%
12:00 +1°C° 0 mm 6 mps 754 mmHg 47%
13:00 +3°C° 0 mm 5 mps 753 mmHg 45%
14:00 +5°C° 0 mm 5 mps 752 mmHg 42%
15:00 +4°C° 0 mm 4 mps 752 mmHg 45%
16:00 +3°C° 0 mm 3 mps 752 mmHg 47%
17:00 +3°C° 0 mm 2 mps 751 mmHg 49%
18:00 +3°C° 0 mm 2 mps 752 mmHg 52%
19:00 +2°C° 0 mm 2 mps 752 mmHg 55%
20:00 +2°C° 0 mm 2 mps 752 mmHg 58%
21:00 +1°C° 0 mm 2 mps 753 mmHg 58%
22:00 0°C° 0 mm 3 mps 753 mmHg 59%
23:00 -1°C° 0 mm 3 mps 754 mmHg 60%

Day after tomorrow, 11 March, Thursday

Time Temperature Precipitation Wind Pressure Humidity
00:00 -1°C° 0 mm 3 mps 754 mmHg 64%
01:00 -2°C° 0 mm 3 mps 755 mmHg 69%
02:00 -4°C° 0 mm 3 mps 755 mmHg 73%
03:00 -5°C° 0 mm 3 mps 756 mmHg 76%
04:00 -6°C° 0 mm 3 mps 756 mmHg 79%
05:00 -6°C° 0 mm 3 mps 757 mmHg 82%
06:00 -6°C° 0 mm 3 mps 757 mmHg 80%
07:00 -5°C° 0 mm 3 mps 758 mmHg 79%
08:00 -5°C° 0 mm 3 mps 758 mmHg 77%
09:00 -4°C° 0 mm 3 mps 758 mmHg 73%
10:00 -2°C° 0 mm 2 mps 758 mmHg 69%
11:00 +1°C° 0 mm 2 mps 759 mmHg 66%
12:00 +1°C° 0 mm 2 mps 758 mmHg 65%
13:00 +1°C° 0 mm 3 mps 758 mmHg 65%
14:00 +1°C° 0 mm 3 mps 758 mmHg 65%
15:00 +1°C° 0 mm 3 mps 757 mmHg 70%
16:00 0°C° 0 mm 3 mps 757 mmHg 76%
17:00 -1°C° 0 mm 3 mps 757 mmHg 81%
18:00 -2°C° 0 mm 2 mps 758 mmHg 83%
19:00 -2°C° 0 mm 2 mps 758 mmHg 85%
20:00 -3°C° 0 mm 2 mps 758 mmHg 88%
21:00 -3°C° 0 mm 2 mps 758 mmHg 85%
22:00 -4°C° 0 mm 2 mps 759 mmHg 82%
23:00 -4°C° 0 mm 2 mps 759 mmHg 80%

12 March, Friday

Time Temperature Precipitation Wind Pressure Humidity
00:00 -4°C° 0 mm 2 mps 759 mmHg 78%
01:00 -4°C° 0 mm 2 mps 759 mmHg 75%
02:00 -4°C° 0 mm 2 mps 759 mmHg 73%
03:00 -5°C° 0 mm 2 mps 759 mmHg 72%
04:00 -5°C° 0 mm 2 mps 759 mmHg 71%
05:00 -5°C° 0 mm 2 mps 759 mmHg 70%
06:00 -5°C° 0 mm 2 mps 759 mmHg 67%
07:00 -4°C° 0 mm 2 mps 760 mmHg 63%
08:00 -4°C° 0 mm 2 mps 760 mmHg 60%
09:00 -3°C° 0 mm 2 mps 760 mmHg 55%
10:00 -1°C° 0 mm 2 mps 760 mmHg 50%
11:00 +1°C° 0 mm 2 mps 760 mmHg 44%
12:00 +2°C° 0 mm 2 mps 760 mmHg 43%
13:00 +3°C° 0 mm 2 mps 759 mmHg 42%
14:00 +3°C° 0 mm 2 mps 759 mmHg 41%
15:00 +2°C° 0 mm 2 mps 758 mmHg 47%
16:00 +2°C° 0 mm 2 mps 758 mmHg 54%
17:00 +1°C° 0 mm 2 mps 758 mmHg 61%
18:00 -1°C° 0 mm 2 mps 758 mmHg 63%
19:00 -2°C° 0 mm 2 mps 758 mmHg 65%
20:00 -3°C° 0 mm 2 mps 758 mmHg 67%
21:00 -3°C° 0 mm 2 mps 758 mmHg 66%
22:00 -3°C° 0 mm 2 mps 757 mmHg 64%
23:00 -3°C° 0 mm 2 mps 757 mmHg 63%

13 March, Saturday

Time Temperature Precipitation Wind Pressure Humidity
00:00 -3°C° 0 mm 2 mps 757 mmHg 63%
01:00 -3°C° 0 mm 2 mps 756 mmHg 63%
02:00 -3°C° 0 mm 2 mps 756 mmHg 64%
03:00 -3°C° 0 mm 2 mps 756 mmHg 67%
04:00 -3°C° 0 mm 2 mps 755 mmHg 71%
05:00 -3°C° 0 mm 2 mps 755 mmHg 74%
06:00 -2°C° 0 mm 2 mps 755 mmHg 75%
07:00 -1°C° 0 mm 2 mps 755 mmHg 76%
08:00 +1°C° 0 mm 2 mps 755 mmHg 77%
09:00 +2°C° 0 mm 3 mps 754 mmHg 71%
10:00 +4°C° 0 mm 3 mps 754 mmHg 65%
11:00 +7°C° 0 mm 3 mps 754 mmHg 59%
12:00 +7°C° 0 mm 4 mps 753 mmHg 60%
13:00 +8°C° 0 mm 4 mps 752 mmHg 62%
14:00 +8°C° 0 mm 4 mps 751 mmHg 64%
15:00 +7°C° 0 mm 4 mps 751 mmHg 72%
16:00 +6°C° 0 mm 4 mps 750 mmHg 79%
17:00 +5°C° 0 mm 3 mps 750 mmHg 87%
18:00 +4°C° 0 mm 4 mps 750 mmHg 88%
19:00 +4°C° 0 mm 4 mps 750 mmHg 90%
20:00 +4°C° 0 mm 4 mps 750 mmHg 92%
21:00 +4°C° 0 mm 4 mps 750 mmHg 91%
22:00 +4°C° 0 mm 4 mps 750 mmHg 91%
23:00 +4°C° 0 mm 4 mps 749 mmHg 90%

14 March, Sunday

Time Temperature Precipitation Wind Pressure Humidity
00:00 +3°C° 0 mm 4 mps 749 mmHg 90%
01:00 +3°C° 0 mm 4 mps 749 mmHg 90%
02:00 +3°C° 0 mm 4 mps 748 mmHg 90%
03:00 +1°C° 0 mm 4 mps 748 mmHg 91%
04:00 +1°C° 0 mm 4 mps 748 mmHg 91%
05:00 +1°C° 0 mm 5 mps 748 mmHg 91%
06:00 +1°C° 0 mm 6 mps 747 mmHg 91%
07:00 +2°C° 0 mm 6 mps 747 mmHg 91%
08:00 +3°C° 0 mm 7 mps 747 mmHg 91%
09:00 +4°C° 0 mm 8 mps 746 mmHg 84%
10:00 +6°C° 0 mm 8 mps 746 mmHg 77%
11:00 +8°C° 0 mm 9 mps 746 mmHg 69%
12:00 +8°C° 0 mm 9 mps 745 mmHg 66%
13:00 +9°C° 0 mm 10 mps 744 mmHg 64%
14:00 +11°C° 0 mm 10 mps 742 mmHg 61%
15:00 +9°C° 0 mm 10 mps 742 mmHg 63%
16:00 +8°C° 0 mm 9 mps 741 mmHg 66%
17:00 +8°C° 0 mm 9 mps 740 mmHg 69%
18:00 +7°C° 0.1 mm 10 mps 739 mmHg 69%
19:00 +7°C° 0.1 mm 10 mps 738 mmHg 70%
20:00 +7°C° 0.1 mm 11 mps 738 mmHg 70%
21:00 +7°C° 0 mm 11 mps 737 mmHg 66%
22:00 +7°C° 0 mm 11 mps 736 mmHg 62%
23:00 +7°C° 0 mm 12 mps 735 mmHg 59%
Show more